TimeHST,TemperatureF,Dew PointF,Humidity,Sea Level PressureIn,VisibilityMPH,Wind Direction,Wind SpeedMPH,Gust SpeedMPH,PrecipitationIn,Events,Conditions,WindDirDegrees,DateUTC
12:56 AM,77.0,69.1,76,30.01,10.0,Calm,Calm,-,N/A,,Overcast,0,2013-09-30 10:56:00
1:56 AM,75.9,68.0,76,29.99,10.0,Calm,Calm,-,N/A,,Mostly Cloudy,0,2013-09-30 11:56:00
2:56 AM,77.0,64.9,66,29.98,10.0,Calm,Calm,-,N/A,,Overcast,0,2013-09-30 12:56:00
3:56 AM,77.0,66.9,71,29.98,10.0,NNE,6.9,-,N/A,,Overcast,20,2013-09-30 13:56:00
4:56 AM,73.0,68.0,84,29.99,10.0,SE,3.5,-,0.00,Rain,Light Rain,130,2013-09-30 14:56:00
5:56 AM,73.0,66.9,81,29.98,10.0,NE,3.5,-,0.00,,Overcast,40,2013-09-30 15:56:00
6:56 AM,73.9,66.0,76,30.00,10.0,Calm,Calm,-,N/A,,Overcast,0,2013-09-30 16:56:00
7:56 AM,78.1,66.0,66,30.02,10.0,SE,4.6,-,N/A,,Clear,130,2013-09-30 17:56:00
8:56 AM,78.1,68.0,71,30.04,10.0,SE,5.8,-,N/A,,Mostly Cloudy,130,2013-09-30 18:56:00
9:56 AM,82.0,64.9,56,30.04,10.0,ENE,4.6,-,0.00,,Overcast,60,2013-09-30 19:56:00
10:56 AM,84.0,66.9,56,30.04,10.0,NW,8.1,-,N/A,,Overcast,310,2013-09-30 20:56:00
11:56 AM,80.1,69.1,69,30.02,10.0,NNW,6.9,-,0.00,,Mostly Cloudy,340,2013-09-30 21:56:00
12:56 PM,80.1,66.0,62,30.00,10.0,WNW,6.9,-,N/A,,Mostly Cloudy,300,2013-09-30 22:56:00
1:02 PM,78.8,68.0,69,29.99,1.8,NW,6.9,-,0.00,Rain,Heavy Rain,320,2013-09-30 23:02:00
1:11 PM,78.8,71.6,78,29.99,-9999.0,NNW,4.6,-,0.00,Rain,Light Rain,330,2013-09-30 23:11:00
1:56 PM,81.0,70.0,69,29.98,10.0,West,6.9,-,0.00,,Clear,260,2013-09-30 23:56:00
2:56 PM,81.0,70.0,69,29.96,10.0,North,12.7,17.3,N/A,,Overcast,350,2013-10-01 00:56:00
3:06 PM,78.8,73.4,83,29.96,4.0,North,10.4,-,0.00,Rain,Light Rain,350,2013-10-01 01:06:00
3:31 PM,78.8,73.4,83,29.96,1.8,NW,10.4,-,N/A,Rain,Heavy Rain,320,2013-10-01 01:31:00
3:42 PM,75.2,71.6,89,29.96,-9999.0,NW,8.1,-,N/A,Rain,Light Rain,320,2013-10-01 01:42:00
3:56 PM,75.0,68.0,79,29.97,3.0,Calm,Calm,-,N/A,Rain,Light Rain,0,2013-10-01 01:56:00
4:19 PM,75.2,71.6,89,29.97,-9999.0,SE,6.9,-,N/A,Rain,Heavy Rain,130,2013-10-01 02:19:00
4:26 PM,75.2,69.8,83,29.96,1.2,Calm,Calm,-,N/A,Rain,Rain,0,2013-10-01 02:26:00
4:34 PM,75.2,71.6,89,29.96,2.5,North,3.5,-,N/A,Rain,Rain,10,2013-10-01 02:34:00
4:42 PM,75.2,71.6,89,29.97,6.2,NE,4.6,-,N/A,Rain,Light Rain,40,2013-10-01 02:42:00
4:51 PM,75.2,71.6,89,29.97,-9999.0,NE,9.2,-,N/A,Rain,Heavy Rain,40,2013-10-01 02:51:00
4:56 PM,73.9,70.0,87,29.98,1.2,North,5.8,-,N/A,Rain,Heavy Rain,360,2013-10-01 02:56:00
5:03 PM,73.4,69.8,88,29.97,2.5,NNE,5.8,-,0.00,Rain,Light Rain,20,2013-10-01 03:03:00
5:10 PM,73.4,69.8,88,29.97,10.0,NNE,5.8,-,0.00,,Mostly Cloudy,20,2013-10-01 03:10:00
5:56 PM,77.0,70.0,79,29.98,10.0,Calm,Calm,-,0.01,,Overcast,0,2013-10-01 03:56:00
6:56 PM,75.0,73.0,94,30.00,10.0,Calm,Calm,-,0.01,,Partly Cloudy,0,2013-10-01 04:56:00
7:56 PM,73.0,69.1,87,30.02,10.0,Calm,Calm,-,0.01,,Clear,0,2013-10-01 05:56:00
8:56 PM,72.0,68.0,87,30.03,10.0,ENE,3.5,-,0.01,,Scattered Clouds,60,2013-10-01 06:56:00
9:56 PM,71.1,68.0,90,30.04,10.0,ENE,4.6,-,0.01,,Partly Cloudy,60,2013-10-01 07:56:00
10:56 PM,71.1,66.0,84,30.04,10.0,ESE,3.5,-,0.01,,Clear,110,2013-10-01 08:56:00
11:56 PM,72.0,66.0,81,30.01,10.0,SE,3.5,-,N/A,,Partly Cloudy,130,2013-10-01 09:56:00